Location: Cuiry
(49.3858°N, 3.7708°E)
Time: 20:14:49
(UTC+00:00)

Meteor 1-28 Rocket - Pass Details

Date: 12 January 2026
Orbit: 427 x 437 km, 97.6° (Epoch: 16 February)

Event Time Altitude Azimuth Distance (km) Brightness Sun altitude
Rises 16:52:23 0° 14° (NNE) 2,408 6.2 -6.9°
Reaches altitude 10° 16:54:25 10° 15° (NNE) 1,535 5.2 -7.2°
Maximum altitude 16:57:42 83° 102° (ESE) 438 2.8 -7.7°
Drops below altitude 10° 17:00:57 10° 192° (SSW) 1,520 6.1 -8.2°
Sets 17:02:57 0° 193° (SSW) 2,381 7.1 -8.4°
